| time (UTC) | temp C | wind direction | speed KPH | gust KPH | rain 1hr cm | rain 24hr cm | rain mn cm | humidity % | barometer mb |
| 20260507180004 | 11 | 58 | 0.0 | 4.8 | 0.00 | 1.47 | 0.08 | 40 | 1008.7 |
| 20260507174508 | 11 | 306 | 3.2 | 17.7 | 0.00 | 1.55 | 0.08 | 40 | 1008.7 |
| 20260507173024 | 11 | 4 | 4.8 | 16.1 | 0.00 | 1.63 | 0.08 | 42 | 1008.8 |
| 20260507171512 | 11 | 212 | 1.6 | 19.3 | 0.00 | 1.68 | 0.08 | 44 | 1009.0 |
| 20260507170020 | 11 | 161 | 0.0 | 11.3 | 0.00 | 1.70 | 0.08 | 46 | 1009.1 |
| 20260507164504 | 11 | 217 | 1.6 | 14.5 | 0.00 | 1.75 | 0.08 | 49 | 1009.2 |
| 20260507163010 | 11 | 247 | 0.0 | 16.1 | 0.00 | 1.78 | 0.08 | 51 | 1009.3 |
| 20260507161511 | 10 | 290 | 4.8 | 12.9 | 0.00 | 1.80 | 0.08 | 59 | 1009.7 |
| 20260507160019 | 9 | 198 | 6.4 | 16.1 | 0.00 | 1.83 | 0.08 | 64 | 1009.9 |
| 20260507154520 | 9 | 192 | 0.0 | 12.9 | 0.00 | 1.85 | 0.08 | 74 | 1010.1 |
| 20260507153004 | 8 | 262 | 3.2 | 11.3 | 0.03 | 1.91 | 0.08 | 82 | 1010.0 |
| 20260507151507 | 7 | 205 | 1.6 | 8.0 | 0.05 | 1.93 | 0.08 | 86 | 1010.2 |
| 20260507150023 | 6 | 220 | 0.0 | 6.4 | 0.05 | 1.98 | 0.08 | 89 | 1010.3 |
| 20260507144525 | 6 | 217 | 0.0 | 9.7 | 0.05 | 2.01 | 0.08 | 88 | 1010.3 |
| 20260507143031 | 6 | 214 | 0.0 | 4.8 | 0.03 | 2.01 | 0.05 | 89 | 1010.4 |
| 20260507141505 | 6 | 214 | 1.6 | 8.0 | 0.00 | 1.98 | 0.03 | 85 | 1010.4 |
| 20260507140012 | 6 | 210 | 0.0 | 9.7 | 0.00 | 1.98 | 0.03 | 84 | 1010.3 |
| 20260507134524 | 6 | 198 | 0.0 | 6.4 | 0.00 | 2.01 | 0.03 | 83 | 1010.3 |
| 20260507133024 | 6 | 190 | 0.0 | 6.4 | 0.00 | 2.01 | 0.03 | 86 | 1010.2 |
| 20260507131530 | 6 | 190 | 0.0 | 6.4 | 0.00 | 2.03 | 0.03 | 88 | 1010.5 |
| 20260507130008 | 6 | 190 | 0.0 | 6.4 | 0.00 | 2.06 | 0.03 | 89 | 1010.4 |
| 20260507124512 | 6 | 188 | 0.0 | 6.4 | 0.00 | 2.06 | 0.03 | 92 | 1010.5 |
| 20260507123017 | 6 | 162 | 0.0 | 4.8 | 0.00 | 2.06 | 0.03 | 97 | 1010.4 |
| 20260507121522 | 5 | 162 | 0.0 | 3.2 | 0.00 | 2.06 | 0.03 | 98 | 1010.3 |
| 20260507120027 | 5 | 162 | 0.0 | 6.4 | 0.00 | 2.06 | 0.03 | 98 | 1010.4 |
| 20260507114510 | 5 | 63 | 0.0 | 3.2 | 0.00 | 2.06 | 0.03 | 98 | 1010.2 |
| 20260507113015 | 4 | 63 | 0.0 | 0.0 | 0.00 | 2.06 | 0.03 | 98 | 1010.3 |
| 20260507111521 | 4 | 63 | 0.0 | 3.2 | 0.03 | 2.06 | 0.03 | 98 | 1010.5 |
| 20260507110025 | 4 | 63 | 0.0 | 0.0 | 0.03 | 2.06 | 0.03 | 98 | 1010.5 |
| 20260507104526 | 3 | 63 | 0.0 | 0.0 | 0.03 | 2.06 | 0.03 | 98 | 1010.5 |
| 20260507103013 | 3 | 63 | 0.0 | 0.0 | 0.03 | 2.06 | 0.03 | 98 | 1010.3 |
| 20260507101517 | 2 | 63 | 0.0 | 0.0 | 0.00 | 2.03 | 0.00 | 98 | 1010.0 |
| 20260507100022 | 2 | 63 | 0.0 | 0.0 | 0.00 | 2.03 | 0.00 | 98 | 1010.3 |
| 20260507094504 | 2 | 63 | 0.0 | 0.0 | 0.00 | 2.03 | 0.00 | 98 | 1010.0 |
| 20260507093011 | 3 | 63 | 0.0 | 0.0 | 0.00 | 2.03 | 0.00 | 98 | 1010.0 |
| 20260507091513 | 3 | 63 | 0.0 | 0.0 | 0.00 | 2.03 | 0.00 | 98 | 1010.2 |
| 20260507090024 | 3 | 63 | 0.0 | 0.0 | 0.00 | 2.03 | 0.00 | 98 | 1010.2 |
| 20260507084527 | 2 | 63 | 0.0 | 0.0 | 0.00 | 2.03 | 0.00 | 98 | 1010.3 |
| 20260507083009 | 2 | 63 | 0.0 | 0.0 | 0.00 | 2.03 | 0.00 | 97 | 1010.2 |
| 20260507081512 | 3 | 63 | 0.0 | 0.0 | 0.00 | 2.03 | 0.00 | 97 | 1009.9 |
| 20260507080023 | 3 | 63 | 0.0 | 0.0 | 0.00 | 2.03 | 0.00 | 98 | 1009.8 |
| 20260507074520 | 3 | 63 | 0.0 | 0.0 | 0.00 | 2.06 | 0.00 | 98 | 1009.8 |
| 20260507073027 | 3 | 63 | 0.0 | 0.0 | 0.00 | 2.08 | 0.00 | 97 | 1009.8 |
| 20260507071511 | 3 | 63 | 0.0 | 0.0 | 0.00 | 2.08 | 0.00 | 97 | 1009.9 |
| 20260507070013 | 3 | 63 | 0.0 | 0.0 | 0.00 | 2.08 | 0.00 | 97 | 1010.0 |
| 20260507064518 | 3 | 63 | 0.0 | 0.0 | 0.00 | 2.11 | 0.00 | 97 | 1009.8 |
| 20260507063023 | 3 | 63 | 0.0 | 0.0 | 0.00 | 2.18 | 0.00 | 97 | 1009.8 |
| 20260507061526 | 4 | 63 | 0.0 | 0.0 | 0.00 | 2.24 | 0.00 | 96 | 1010.1 |
| 20260507060010 | 5 | 63 | 0.0 | 0.0 | 0.00 | 2.39 | 0.00 | 96 | 1009.8 |
| 20260507054520 | 5 | 63 | 0.0 | 0.0 | 0.00 | 2.39 | 0.00 | 97 | 1009.9 |
| 20260507053022 | 5 | 63 | 0.0 | 1.6 | 0.00 | 2.41 | 0.00 | 96 | 1010.0 |
| 20260507051524 | 5 | 63 | 0.0 | 0.0 | 0.00 | 2.41 | 0.00 | 97 | 1009.9 |
| 20260507050029 | 5 | 63 | 0.0 | 1.6 | 0.00 | 2.41 | 0.00 | 97 | 1010.0 |
| 20260507044512 | 5 | 63 | 0.0 | 4.8 | 0.00 | 2.46 | 0.00 | 97 | 1010.0 |
| 20260507043022 | 5 | 63 | 0.0 | 4.8 | 0.00 | 2.46 | 0.00 | 97 | 1009.9 |
| 20260507041522 | 6 | 63 | 0.0 | 0.0 | 0.03 | 2.46 | 0.00 | 97 | 1010.1 |
| 20260507040026 | 5 | 63 | 0.0 | 0.0 | 0.03 | 2.46 | 0.00 | 97 | 1009.8 |
| 20260507034527 | 6 | 63 | 0.0 | 0.0 | 0.05 | 2.46 | 2.46 | 97 | 1010.2 |
| 20260507033006 | 6 | 63 | 0.0 | 3.2 | 0.08 | 2.46 | 2.46 | 96 | 1010.3 |
| 20260507031506 | 6 | 63 | 0.0 | 1.6 | 0.08 | 2.44 | 2.44 | 96 | 1010.3 |
| 20260507030009 | 6 | 1 | 0.0 | 9.7 | 0.10 | 2.44 | 2.44 | 96 | 1010.5 |
| 20260507024510 | 6 | 55 | 0.0 | 1.6 | 0.13 | 2.41 | 2.41 | 96 | 1010.7 |
| 20260507023007 | 6 | 55 | 0.0 | 8.0 | 0.13 | 2.39 | 2.39 | 96 | 1010.7 |
| 20260507021510 | 6 | 84 | 0.0 | 3.2 | 0.13 | 2.36 | 2.36 | 96 | 1010.7 |
| 20260507020010 | 6 | 84 | 0.0 | 0.0 | 0.13 | 2.34 | 2.34 | 97 | 1010.4 |
| 20260507014517 | 6 | 84 | 0.0 | 0.0 | 0.13 | 2.29 | 2.29 | 97 | 1010.3 |
| 20260507013017 | 6 | 53 | 0.0 | 4.8 | 0.15 | 2.26 | 2.26 | 97 | 1010.0 |
| 20260507011514 | 7 | 53 | 0.0 | 3.2 | 0.18 | 2.24 | 2.24 | 97 | 1010.2 |
| 20260507010013 | 7 | 53 | 0.0 | 0.0 | 0.15 | 2.21 | 2.21 | 97 | 1009.8 |
| 20260507004510 | 7 | 53 | 0.0 | 3.2 | 0.10 | 2.16 | 2.16 | 97 | 1009.8 |
| 20260507003013 | 7 | 53 | 0.0 | 0.0 | 0.08 | 2.11 | 2.11 | 97 | 1009.4 |
| 20260507001510 | 7 | 53 | 0.0 | 0.0 | 0.08 | 2.06 | 2.06 | 97 | 1009.5 |
| 20260507000013 | 7 | 53 | 0.0 | 0.0 | 0.10 | 2.06 | 2.06 | 97 | 1009.3 |
| 20260506234516 | 7 | 53 | 0.0 | 0.0 | 0.10 | 2.06 | 2.06 | 97 | 1009.3 |
| 20260506233012 | 7 | 53 | 0.0 | 0.0 | 0.08 | 2.03 | 2.03 | 97 | 1009.3 |
| 20260506231512 | 7 | 53 | 0.0 | 0.0 | 0.05 | 1.98 | 1.98 | 96 | 1009.1 |
| 20260506230014 | 8 | 53 | 0.0 | 0.0 | 0.05 | 1.96 | 1.96 | 96 | 1009.1 |
| 20260506224515 | 8 | 53 | 0.0 | 0.0 | 0.18 | 1.96 | 1.96 | 96 | 1008.9 |
| 20260506223014 | 8 | 53 | 0.0 | 3.2 | 0.36 | 1.96 | 1.96 | 96 | 1008.8 |
| 20260506221514 | 8 | 53 | 0.0 | 3.2 | 0.36 | 1.93 | 1.93 | 95 | 1008.8 |
| 20260506220015 | 8 | 49 | 0.0 | 6.4 | 0.41 | 1.93 | 1.91 | 94 | 1008.7 |
| 20260506214529 | 8 | 359 | 1.6 | 11.3 | 0.30 | 1.85 | 1.78 | 93 | 1008.2 |
| 20260506213019 | 8 | 260 | 1.6 | 8.0 | 0.18 | 1.80 | 1.60 | 93 | 1008.0 |
| 20260506211516 | 9 | 80 | 0.0 | 8.0 | 0.15 | 1.83 | 1.57 | 92 | 1007.8 |
| 20260506210019 | 10 | 81 | 0.0 | 11.3 | 0.08 | 1.78 | 1.47 | 93 | 1007.6 |
| 20260506204516 | 11 | 290 | 0.0 | 9.7 | 0.08 | 1.88 | 1.47 | 93 | 1007.4 |
| 20260506203019 | 11 | 139 | 0.0 | 1.6 | 0.03 | 1.91 | 1.42 | 96 | 1007.3 |
| 20260506201516 | 11 | 139 | 0.0 | 1.6 | 0.05 | 1.91 | 1.42 | 95 | 1007.4 |
| 20260506200016 | 12 | 139 | 0.0 | 1.6 | 0.08 | 1.91 | 1.42 | 97 | 1007.5 |
| 20260506194518 | 11 | 139 | 0.0 | 3.2 | 0.10 | 1.88 | 1.40 | 97 | 1007.7 |
| 20260506193014 | 11 | 139 | 0.0 | 0.0 | 0.15 | 1.88 | 1.40 | 96 | 1007.8 |
| 20260506191518 | 12 | 139 | 0.0 | 0.0 | 0.23 | 1.85 | 1.37 | 97 | 1007.9 |
| 20260506190018 | 12 | 139 | 0.0 | 0.0 | 0.28 | 1.83 | 1.32 | 96 | 1008.0 |
| 20260506184539 | 12 | 139 | 0.0 | 6.4 | 0.30 | 1.78 | 1.30 | 96 | 1008.0 |
| 20260506183028 | 12 | 134 | 0.0 | 9.7 | 0.33 | 1.73 | 1.24 | 97 | 1008.2 |
| 20260506181517 | 13 | 350 | 0.0 | 0.0 | 0.28 | 1.63 | 1.14 | 98 | 1008.3 |